Kimball, NE

5:36 AM MST on December 03, 2016 (GMT -0700)
Kimball Municipal-Arraj

Weather History for KIBM - February, 2012

Change the Weather History Date:

Wednesday, February 22, 2012

  Actual Average (KSNY) Record (KSNY)
Temperature  
Mean Temperature 46 °F 34 °F  
Max Temperature 55 °F 47 °F 71 °F (1982)
Min Temperature 36 °F 20 °F -8 °F (2010)
Degree Days  
Heating Degree Days 20 31  
Month to date heating degree days 742  
Since 1 July heating degree days 4399  
Cooling Degree Days 0 0  
Month to date cooling degree days 0  
Year to date cooling degree days 0  
Moisture  
Dew Point 28 °F    
Average Humidity 52    
Maximum Humidity 70    
Minimum Humidity 32    
Precipitation  
Precipitation 0.00 in 0.02 in 0.18 in (1959)
Month to date precipitation 0.23  
Year to date precipitation 0.43  
Sea Level Pressure  
Sea Level Pressure 29.57 in    
Wind  
Wind Speed 24 mph (WNW)    
Max Wind Speed 56 mph    
Max Gust Speed 69 mph    
Visibility 9 miles    
Events      
T = Trace of Precipitation, MM = Missing Value Source: NWS Daily Summary

Daily Weather History Graph

Daily Weather History Graph

Search for Another Location

Airport or City:

Trip Planner

Search our weather history database for the weather conditions in past years. The results will help you decide how hot, cold, wet, or windy it might be!

Date:

Astronomy

Feb. 22, 2012 Rise Set
Actual Time 7:40 AM CST 6:36 PM CST
Civil Twilight 7:12 AM CST 7:04 PM CST
Nautical Twilight 6:40 AM CST 7:36 PM CST
Astronomical Twilight 6:08 AM CST 8:08 PM CST
Moon 7:38 AM CST (2/22) 7:47 PM CST (2/22)
Length of Visible Light 11h 52m
Length of Day
10h 56m
New Moon, 1% of the Moon is Illuminated
Feb 22
New Moon
Feb 29
First Quarter
Mar 8
Full
Mar 14
Last Quarter
Mar 22
New

Hourly Weather History & Observations

Time (CST) Temp. Windchill Dew Point Humidity Pressure Visibility Wind Dir Wind Speed Gust Speed Precip Events Conditions
12:15 AM 40.1 °F 29.5 °F 26.2 °F 58% 29.67 in 10.0 mi WNW 25.3 mph 29.9 mph N/A   Clear
12:35 AM 39.9 °F 29.0 °F 26.4 °F 59% 29.67 in 10.0 mi WNW 26.5 mph 35.7 mph N/A   Clear
12:55 AM 38.8 °F 29.7 °F 27.0 °F 62% 29.67 in 10.0 mi West 17.3 mph - N/A   Clear
1:15 AM 37.4 °F 29.3 °F 27.1 °F 66% 29.67 in 10.0 mi West 12.7 mph - N/A   Clear
1:35 AM 36.9 °F 28.7 °F 27.1 °F 68% 29.67 in 10.0 mi West 12.7 mph - N/A   Scattered Clouds
1:55 AM 37.9 °F 29.2 °F 27.3 °F 66% 29.65 in 10.0 mi WNW 15.0 mph 19.6 mph N/A   Scattered Clouds
2:15 AM 38.3 °F 29.0 °F 27.3 °F 65% 29.65 in 10.0 mi WNW 17.3 mph - N/A   Clear
2:35 AM 38.3 °F 30.1 °F 28.2 °F 67% 29.65 in 10.0 mi NW 13.8 mph - N/A   Clear
2:55 AM 38.8 °F 30.4 °F 28.4 °F 66% 29.66 in 10.0 mi NW 15.0 mph 20.7 mph N/A   Clear
3:15 AM 38.7 °F 30.5 °F 28.4 °F 67% 29.65 in 10.0 mi NW 13.8 mph 19.6 mph N/A   Mostly Cloudy
3:35 AM 39.4 °F 29.8 °F 28.2 °F 64% 29.64 in 10.0 mi WNW 19.6 mph 25.3 mph N/A   Scattered Clouds
3:55 AM 39.2 °F 30.8 °F 28.4 °F 65% 29.62 in 10.0 mi West 15.0 mph 20.7 mph N/A   Mostly Cloudy
4:15 AM 39.9 °F 32.9 °F 28.4 °F 63% 29.62 in 10.0 mi WNW 11.5 mph 17.3 mph N/A   Overcast
4:35 AM 39.0 °F 32.8 °F 28.4 °F 66% 29.62 in 10.0 mi NW 9.2 mph - N/A   Mostly Cloudy
4:55 AM 39.2 °F 32.0 °F 29.3 °F 68% 29.62 in 10.0 mi WNW 11.5 mph - N/A   Mostly Cloudy
5:15 AM 38.7 °F 31.4 °F 29.3 °F 69% 29.62 in 10.0 mi WNW 11.5 mph - N/A   Overcast
5:35 AM 39.9 °F 33.9 °F 29.8 °F 67% 29.63 in 10.0 mi NNW 9.2 mph - N/A   Mostly Cloudy
5:55 AM 41.9 °F 32.1 °F 29.8 °F 62% 29.62 in 10.0 mi WNW 24.2 mph 31.1 mph N/A   Overcast
6:15 AM 41.5 °F 34.6 °F 29.8 °F 63% 29.62 in 10.0 mi WNW 12.7 mph - N/A   Overcast
6:35 AM 40.1 °F 32.7 °F 30.2 °F 68% 29.61 in 10.0 mi WNW 12.7 mph - N/A   Overcast
6:55 AM 39.2 °F 33.6 °F 30.2 °F 70% 29.60 in 10.0 mi WNW 8.1 mph - N/A   Overcast
7:15 AM 39.2 °F 33.6 °F 30.2 °F 70% 29.60 in 10.0 mi West 8.1 mph - N/A   Overcast
7:35 AM 38.8 °F 33.2 °F 29.8 °F 70% 29.60 in 10.0 mi West 8.1 mph - N/A   Mostly Cloudy
7:55 AM 40.5 °F 32.1 °F 30.2 °F 67% 29.61 in 10.0 mi WNW 16.1 mph 21.9 mph N/A   Scattered Clouds
8:15 AM 41.4 °F 31.9 °F 30.0 °F 64% 29.60 in 10.0 mi NW 21.9 mph 31.1 mph N/A   Clear
8:35 AM 43.9 °F 35.0 °F 30.2 °F 59% 29.60 in 10.0 mi NW 23.0 mph 33.4 mph N/A   Mostly Cloudy
8:55 AM 44.4 °F 35.7 °F 30.2 °F 57% 29.61 in 10.0 mi WNW 23.0 mph 32.2 mph N/A   Scattered Clouds
9:15 AM 45.0 °F 36.6 °F 30.6 °F 57% 29.60 in 10.0 mi NW 21.9 mph 29.9 mph N/A   Clear
9:35 AM 46.0 °F 38.0 °F 30.6 °F 55% 29.60 in 10.0 mi NW 21.9 mph 35.7 mph N/A   Clear
9:55 AM 46.8 °F - 30.6 °F 53% 29.61 in 10.0 mi WNW 26.5 mph 38.0 mph N/A   Scattered Clouds
10:15 AM 47.5 °F - 30.6 °F 52% 29.60 in 10.0 mi NW 26.5 mph 36.8 mph N/A   Scattered Clouds
10:55 AM 49.6 °F - 30.9 °F 49% 29.60 in 10.0 mi NW 27.6 mph 34.5 mph N/A   Clear
11:15 AM 50.2 °F - 30.0 °F 46% 29.59 in 10.0 mi NW 27.6 mph 40.3 mph N/A   Mostly Cloudy
11:35 AM 51.1 °F - 28.9 °F 43% 29.59 in 10.0 mi WNW 33.4 mph 49.5 mph N/A   Overcast
11:55 AM 52.5 °F - 28.6 °F 40% 29.59 in 10.0 mi WNW 43.7 mph 56.4 mph N/A   Overcast
12:15 PM 53.6 °F - 28.6 °F 38% 29.57 in 10.0 mi WNW 40.3 mph 55.2 mph N/A   Scattered Clouds
12:35 PM 53.8 °F - 27.9 °F 37% 29.56 in 10.0 mi WNW 50.6 mph 62.1 mph N/A   Clear
12:55 PM 54.5 °F - 27.7 °F 36% 29.55 in 7.0 mi WNW 50.6 mph 61.0 mph N/A   Scattered Clouds
1:15 PM 55.4 °F - 27.1 °F 34% 29.53 in 10.0 mi WNW 42.6 mph 57.5 mph N/A   Scattered Clouds
1:35 PM 55.0 °F - 26.2 °F 33% 29.52 in 5.0 mi West 49.5 mph 63.3 mph N/A   Haze
1:55 PM 55.6 °F - 25.9 °F 32% 29.50 in 7.0 mi West 50.6 mph 62.1 mph N/A   Scattered Clouds
2:15 PM 55.8 °F - 25.9 °F 32% 29.49 in 5.0 mi West 48.3 mph 66.7 mph N/A   Haze
2:35 PM 55.4 °F - 25.9 °F 32% 29.48 in 4.0 mi West 56.4 mph 69.0 mph N/A   Haze
2:55 PM 55.9 °F - 26.8 °F 33% 29.48 in 5.0 mi West 39.1 mph 64.4 mph N/A   Haze
3:15 PM 54.5 °F - 25.5 °F 33% 29.47 in 7.0 mi WNW 56.4 mph 65.6 mph N/A   Clear
3:35 PM 53.6 °F - 25.7 °F 34% 29.46 in 5.0 mi West 47.2 mph 59.8 mph N/A   Haze
3:55 PM 52.9 °F - 25.9 °F 35% 29.46 in 7.0 mi West 43.7 mph 61.0 mph N/A   Clear
4:15 PM 52.3 °F - 26.1 °F 36% 29.45 in 10.0 mi West 44.9 mph 61.0 mph N/A   Scattered Clouds
4:35 PM 51.3 °F - 26.2 °F 38% 29.44 in 10.0 mi West 46.0 mph 59.8 mph N/A   Mostly Cloudy
4:55 PM 51.3 °F - 26.4 °F 38% 29.43 in 10.0 mi West 43.7 mph 52.9 mph N/A   Scattered Clouds
5:15 PM 51.3 °F - 26.4 °F 38% 29.43 in 10.0 mi West 40.3 mph 50.6 mph N/A   Mostly Cloudy
5:35 PM 50.5 °F - 26.8 °F 40% 29.41 in 10.0 mi West 40.3 mph 49.5 mph N/A   Scattered Clouds
5:55 PM 50.0 °F - 27.3 °F 41% 29.40 in 10.0 mi West 39.1 mph 47.2 mph N/A   Clear
6:15 PM 49.5 °F - 27.3 °F 42% 29.40 in 10.0 mi West 35.7 mph 41.4 mph N/A   Clear
6:35 PM 49.1 °F - 27.5 °F 43% 29.39 in 10.0 mi West 32.2 mph 41.4 mph N/A   Clear
6:55 PM 48.2 °F - 28.0 °F 46% 29.40 in 10.0 mi West 27.6 mph 38.0 mph N/A   Clear
7:15 PM 47.3 °F - 28.4 °F 48% 29.40 in 10.0 mi West 26.5 mph 34.5 mph N/A   Clear
7:35 PM 46.9 °F - 28.4 °F 49% 29.39 in 10.0 mi West 27.6 mph 38.0 mph N/A   Clear
7:55 PM 46.6 °F - 28.4 °F 49% 29.39 in 10.0 mi West 26.5 mph 34.5 mph N/A   Clear
8:15 PM 45.9 °F 37.6 °F 28.6 °F 51% 29.39 in 10.0 mi West 23.0 mph 28.8 mph N/A   Clear
8:35 PM 46.6 °F - 28.2 °F 49% 29.38 in 10.0 mi West 32.2 mph 41.4 mph N/A   Clear
8:55 PM 46.8 °F - 27.3 °F 47% 29.38 in 10.0 mi West 29.9 mph 38.0 mph N/A   Clear
9:15 PM 47.3 °F - 26.1 °F 44% 29.37 in 10.0 mi West 34.5 mph 47.2 mph N/A   Clear
9:35 PM 45.1 °F 36.9 °F 26.6 °F 48% 29.37 in 10.0 mi West 21.9 mph 41.4 mph N/A   Clear
9:55 PM 44.2 °F 35.0 °F 27.1 °F 51% 29.37 in 10.0 mi West 25.3 mph 33.4 mph N/A   Clear
10:15 PM 45.3 °F 35.7 °F 26.4 °F 48% 29.36 in 10.0 mi West 29.9 mph 34.5 mph N/A   Clear
10:35 PM 46.8 °F - 24.6 °F 42% 29.36 in 10.0 mi West 31.1 mph 40.3 mph N/A   Clear
10:55 PM 46.8 °F - 24.6 °F 42% 29.36 in 10.0 mi West 28.8 mph 38.0 mph N/A   Scattered Clouds
11:15 PM 46.9 °F - 24.8 °F 42% 29.36 in 10.0 mi WNW 33.4 mph 41.4 mph N/A   Scattered Clouds
11:35 PM 36.1 °F 24.4 °F 31.1 °F 82% 29.42 in 10.0 mi North 24.2 mph 33.4 mph N/A   Unknown